Вернуться в каталог

SL-12 R/B(2)

АктивенGEO
NORAD 13954·ROCKET BODY·🇷🇺 Russia

Запущен Nov 26, 1982 с Baikonur Cosmodrome

Loading…

TLE

СвежийSource: Space-Track

Эпоха: Sep 14, 2026, 17:32 UTC

1 13954U 82113F   26257.73064073 -.00000044  00000-0  00000-0 0  9998
2 13954   9.0849 310.2749 0024890 292.3567  79.3986  0.97569864120769

Отслеживайте SL-12 R/B(2) в реальном времени с AllMySat

Download on the App Store